Aérodrome :
LOGIN :

S'inscrire | Disclaimer

   EN    FR    IT 

 










Légende :    VFR   VFR Marginal   IFR   IFR Intensif   IFR Très Intensif
Visi : 
Plafond : 
>= 8 km
>= 3000ft
5 à 8 km
1000 à 3000 ft
1500m à 5 km
500 à 1000 ft
800 à 1500m
200 à 500 ft
< 800m
< 200 ft
Symboles :   Orages  Brouillard  Fortes neiges  Fortes précipitations  Vent > 20 kt
SIGMETs :   Divers  Orages  Givrage  Turbulence  Onde Orograph.  Cendres Volcan.







- Altitude de l'aérodrome : 36 ft
- Code IATA : LTQ
- Voir les cartes d'approche


LFAT - Le Touquet

DERNIER METAR :
  • 221200Z AUTO 26007KT 230V320 CAVOK 23/16 Q1024 NOSIG

METARs EXPIRÉS :
  • 221130Z AUTO 28007KT 250V320 CAVOK 23/16 Q1024 NOSIG
  • 221100Z AUTO 27007KT 230V320 CAVOK 22/16 Q1024 NOSIG
  • 221030Z AUTO 27007KT 230V310 CAVOK 22/16 Q1024 NOSIG
  • 221000Z AUTO 27007KT 230V310 CAVOK 22/15 Q1024 NOSIG
  • 220930Z AUTO 26008KT 230V300 CAVOK 21/16 Q1024 NOSIG

TAF TAF LFAT
Valide du 22 à 12h jusqu'au 22 à 21h UTC


221100Z 2212/2221 26008KT CAVOK
ATIS : +33 3 21 06 62 84
Pas de NOTAMs connus pour ce terrain.



MET'MAP, la Météo Aéronautique d'un coup d'oeil ! - Copyright ORBIFLY Décembre 2007 - Disclaimer

ORBIFLY MET'MAP TEAM :

Programmation & Développement : Alexandra Zaïnal
Conception & Développement : Baudouin d'Aumeries
Co-Programmation & Développement : Marc-Olivier Méhu
Soutien technique & logistique : Manuel Goepfert

Contact : metmap@orbifly.com




SOURCES & CREDITS :

   NOAA